Location: Newark
(37.9717°N, 99.9089°W)
Time: 00:21:16
(UTC+00:00)

ISS - Pass Details

Date: 30 July 2019
Orbit: 410 x 420 km, 51.6° (Epoch: 21 August)

Event Time Altitude Azimuth Distance (km) Brightness Sun altitude
Rises 03:37:08 0° 319° (NW) 2,371 1.8 -18.1°
Reaches altitude 10° 03:40:00 10° 346° (NNW) 1,502 -0.1 -18.5°
Maximum altitude 03:41:55 14° 21° (NNE) 1,267 -1.1 -18.8°
Enters shadow 03:43:30 11° 51° (NE) 1,432 -1.1 -19.0°
